Preview of NWS' New Version of Forecast
This preview is not operational and should not be used for support decisions.

Regional Weather Roundup (RWR)

Issued by National Weather Service (NWS)

                            
000
ASUS43 KDMX 171201
RWRIA 

WEATHER ROUNDUP FOR IOWA
NATIONAL WEATHER SERVICE DES MOINES IA
600 AM CST SUN FEB 17 2019

NOTE: "FAIR" INDICATES FEW OR NO CLOUDS BELOW 12,000 FEET WITH NO
SIGNIFICANT WEATHER AND/OR OBSTRUCTIONS TO VISIBILITY.

* - THESE STATIONS ARE NOT NWS STATIONS...THUS NOT UNDER NWS
QUALITY CONTROL.  THEY ALSO DO NOT REPORT WEATHER SUCH 
AS PRECIPITATION OR FOG.  

IAZ001>003-012>014-020>022-031>034-043>046-171300-
   NORTHWEST IOWA
  
CITY           SKY/WX    TMP DP  RH WIND       PRES   REMARKS
CARROLL *      LGT SNOW  21  21 100 NE9       29.78R WCI  11          
CHEROKEE *     LGT SNOW  19  18  96 NE9       29.83R WCI   7          
DENISON *      LGT SNOW  19  19 100 NE8       29.79R WCI   9          
LE MARS *      LGT SNOW  18  16  93 NE12      29.83S WCI   5          
ORANGE CITY *  LGT SNOW  18  16  93 NE9       29.82S WCI   6          
SHELDON *      FLURRIES  16  16 100 NE16      29.82S WCI   0          
SIOUX CITY     LGT SNOW  18  15  88 N9        29.83S FOG     WCI   7  
6HR MIN TEMP:  17; 6HR MAX TEMP:  18; 6HR PCP:  0.09;                

SPENCER        LGT SNOW  18  14  84 NE14      29.84R FOG     WCI   4  
6HR MIN TEMP:  17; 6HR MAX TEMP:  19; 6HR PCP:  0.02;                

STORM LAKE *   LGT SNOW  18  18 100 NE15      29.80R WCI   3          
$$
 
IAZ055>058-069>071-079>083-090>094-171300-
   SOUTHWEST IOWA
  
CITY           SKY/WX    TMP DP  RH WIND       PRES   REMARKS
ATLANTIC *     MIX PCPN  23  23 100 NE6       29.76R WCI  16          
AUDUBON *      LGT SNOW  21  19  93 CALM      29.77R                  
CLARINDA *     LGT SNOW  25  23  93 N6        29.78R WCI  18          
COUNCIL BLFS * FLURRIES  19  19 100 NW6       29.78R WCI  11          
CRESTON *      CLOUDY    25  25 100 E15       29.74R FOG     WCI  12  
HARLAN  *      LGT SNOW  21  21 100 N6        29.77R WCI  14          
LAMONI         CLOUDY    26  24  92 E5        29.72R FOG     WCI  20  
6HR MIN TEMP:  22; 6HR MAX TEMP:  26; 6HR PCP:  0.01;                

RED OAK *      LGT SNOW  23  23 100 N6        29.77R WCI  16          
SHENANDOAH *   FLURRIES  23  23 100 NW5       29.78R WCI  17          
$$
 
IAZ047>049-059>061-072>074-084-171300-
   CENTRAL IOWA
  
CITY           SKY/WX    TMP DP  RH WIND       PRES   REMARKS
AMES           LGT SNOW  24  21  88 E8        29.79S FOG     WCI  15  
6HR MIN TEMP:  21; 6HR MAX TEMP:  24; 6HR PCP:  0.14;                

ANKENY *       MIX PCPN  25  23  93 E13       29.79S WCI  13          
BOONE *        MIX PCPN  23  23 100 E10       29.77S WCI  12          
CHARITON *     MIX PCPN  25  25 100 E9        29.75R WCI  15          
DES MOINES     LGT SNOW  24  23  96 E7G20     29.77S BLWGSNOWWCI  16  
6HR MIN TEMP:  22; 6HR MAX TEMP:  25; 6HR PCP:  0.15;                

GRINNELL*      LGT SNOW  23  22  96 E14       29.78F WCI  11          
KNOXVILLE *    LGT SNOW  25  25 100 E12       29.76S WCI  14          
MARSHALLTOWN   LGT SNOW  22  21  96 E13       29.79S FOG     WCI  10  
6HR MIN TEMP:  22; 6HR MAX TEMP:  23; 6HR PCP: TRACE;                

NEWTON *       LGT SNOW  23  23 100 E15       29.77F WCI  10          
PELLA *        LGT SNOW  24  22  93 E10G16    29.79S WCI  13          
PERRY *        LGT SNOW  24  24  99 CALM      29.78R                  
$$
 
IAZ004>006-015-016-023>025-035-036-171300-
   NORTH CENTRAL IOWA
  
CITY           SKY/WX    TMP DP  RH WIND       PRES   REMARKS
ALGONA *       LGT SNOW  19  19 100 NE13      29.82S VSB 1   WCI   7  
CLARION *      CLOUDY    19  18  93 E18       29.81S FOG     WCI   4  
ESTHERVILLE    LGT SNOW  15  13  91 NE14      29.85S FOG     WCI   0  
6HR MIN TEMP:  14; 6HR MAX TEMP:  16; 6HR PCP:  0.03;                

FORT DODGE *   FLURRIES  19  17  92 NE12      29.81S WCI   7          
MASON CITY     LGT SNOW  19  17  92 NE13      29.86S VSB 1   WCI   6  
6HR MIN TEMP:  17; 6HR MAX TEMP:  19; 6HR PCP:  0.03;                

FOREST CITY *  LGT SNOW  21  19  93 NE10      29.85S VSB 1   WCI  10  
IOWA FALLS *   FLURRIES  22  20  93 NE7       29.82R WCI  13          
$$

IAZ007>011-017>019-026>030-037>042-050>054-066-171300-
   NORTHEAST IOWA
  
CITY           SKY/WX    TMP DP  RH WIND       PRES   REMARKS
CEDAR RAPIDS   CLOUDY    22  20  92 E18       29.80S FOG     WCI   7  
6HR MIN TEMP:  22; 6HR MAX TEMP:  25; 6HR PCP:  0.03;                

CHARLES CITY * LGT SNOW  19  16  86 NE13      29.85F WCI   7          
CLINTON *      LGT SNOW  23  22  96 E14       29.85F FOG     WCI  11  
DECORAH *      LGT SNOW  18  18 100 NE9       29.87S WCI   6          
DUBUQUE        LGT SNOW  22  19  89 E10       29.84S FOG     WCI  11  
6HR MIN TEMP:  22; 6HR MAX TEMP:  24; 6HR PCP:  0.17;                

OELWEIN *      CLOUDY    19  19 100 NE13      29.83S FOG     WCI   7  
WATERLOO       LGT SNOW  22  19  89 NE10      29.83S FOG     WCI  11  
6HR MIN TEMP:  22; 6HR MAX TEMP:  23; 6HR PCP:  0.23;                

$$
 
IAZ064-065-067-068-078-171300-
   EAST CENTRAL IOWA
  
CITY           SKY/WX    TMP DP  RH WIND       PRES   REMARKS
DAVENPORT      CLOUDY    24  20  84 E15       29.85F WCI  11          
6HR MIN TEMP:  24; 6HR MAX TEMP:  25; 6HR PCP:  0.03;                

IOWA CITY      CLOUDY    24  21  88 E12G22    29.83F FOG     WCI  13  
6HR MIN TEMP:  24; 6HR MAX TEMP:  27; 6HR PCP:  0.07;                

MT. PLEASANT * CLOUDY    27  27 100 E13       29.79S FOG     WCI  16  
MUSCATINE *    CLOUDY    25  23  93 E10G20    29.83F FOG     WCI  15  
QUAD CITIES    CLOUDY    25  21  85 E15       29.83F WCI  13          
6HR MIN TEMP:  25; 6HR MAX TEMP:  28; 6HR PCP:  0.06;                

$$
 
IAZ062-063-075>077-085>089-095>099-171300-
   SOUTHEAST IOWA
  
CITY           SKY/WX    TMP DP  RH WIND       PRES   REMARKS
BURLINGTON     CLOUDY    25  20  81 E17G24    29.79S WCI  12          
6HR MIN TEMP:  25; 6HR MAX TEMP:  28; 6HR PCP:  0.05;                

FAIRFIELD *    CLOUDY    25  23  93 E14G22    29.77F FOG     WCI  13  
KEOKUK *       CLOUDY    27  25  93 E12       29.77S FOG     WCI  16  
OSKALOOSA *    CLOUDY    24  23  95 E14G20    29.77S FOG     WCI  12  
OTTUMWA        CLOUDY    25  23  92 E17       29.76S FOG     WCI  12  
6HR MIN TEMP:  25; 6HR MAX TEMP:  26; 6HR PCP:  0.08;                

WASHINGTON *   CLOUDY    25  25 100 E16       29.80F FOG     WCI  12  
$$

ABBREVIATIONS USED IN REMARKS
   TC - TEMPERATURES IN CELSIUS
  WCI - WIND CHILL INDEX
   HX - HEAT INDEX
  VSB - VISIBILITY  
$$